User: anonymous   Login
Location: Caltech
(34.1382°N, 118.1253°W)
Time: 17:01:51
(UTC-07:00)
Language:

FENGYUN 3A - Orbit

View from above orbital plane
View from above orbital plane
View from above satellite
View from above satellite

Ground track
Ground track

The orbit data is extracted from the following two-line orbital elements,

1 32958U 08026A   17082.86374399 -.00000019 +00000-0 +10257-4 0  9990
2 32958 098.4177 115.7673 0009829 160.8681 199.2862 14.19653779457233
Epoch (UTC): 23 March 2017 20:43:47
Eccentricity: 0.0009829
inclination: 98.4177°
perigee height: 819 km
apogee height: 833 km
right ascension of ascending node: 115.7673°
argument of perigee: 160.8681°
revolutions per day: 14.19653779
mean anomaly at epoch: 199.2862°
orbit number at epoch: 45723

The dashed part of the orbit path shows where the satellite is in the earth's shadow,  

DLR